User: anonymous
Location: Goheenville
(40.9070°N, 79.3720°W)
Time: 18:07:17
(UTC-04:00)
Language:

Cosmos 1727 Rocket - Orbit

View from above orbital plane
View from above orbital plane
View from above satellite
View from above satellite

Ground track
Ground track

The orbit data is extracted from the following two-line orbital elements,

1 16511U 86008B   14241.05846543  .00000000  00000-0 -15420-4 0  5615
2 16511 082.9413 258.6303 0023010 258.9347 152.6577 13.75770304435590
Epoch (UTC): 29 August 2014 01:24:11
Eccentricity: 0.0023010
inclination: 82.9413°
perigee height: 962 km
apogee height: 996 km
right ascension of ascending node: 258.6303°
argument of perigee: 258.9347°
revolutions per day: 13.75770304
mean anomaly at epoch: 152.6577°
orbit number at epoch: 43559

The dashed part of the orbit path shows where the satellite is in the earth's shadow,  

DLR